Tracking 19794 objects as of 21-Jul-2019
HD Live streaming from Space Station
objects crossing your sky now

INTELSAT 2 (PAS 2)

Track INTELSAT 2 (PAS 2) now!
INTELSAT 2 (PAS 2) is classified as:


NORAD ID: 23175
Int'l Code: 1994-040A
Perigee: 36,072.8 km
Apogee: 36,123.4 km
Inclination: 8.0 °
Period: 1,451.7 minutes
Semi major axis: 42469 km
RCS: 6.3096 m2 (large)
Launch date: July 8, 1994
Source: United States (US)
Launch site: FRENCH GUIANA (FRGUI)

12 Ku-band; Asia-Pacific.
aabbcc
Your satellite tracking list
Your tracking list is empty




NASA's NSSDC Master Catalog

Two Line Element Set (TLE):
1 23175U 94040A   19200.82757867 -.00000145 +00000-0 +00000-0 0  9998
2 23175 007.9621 051.3292 0005952 001.3184 188.5968 00.99195772090604
Source of the keplerian elements: AFSPC